This demonstration page uses our WeatherBlox Daily Observations layout. Learn more.

Left ArrowRight Arrow

Hourly Observations for December 5, 2022

Temp ( °F °C ) Dew Point ( °F °C ) Humidity (%) Winds ( mph kmh ) Pressure ( in mb ) Visibility ( mi km ) Precip ( " mm )
12:15 am 00:15 Clear 28 -2.5 17 -8.6 63 63 SSW 8 13 30.14 1021 10 16 0.00 0.00
12:35 am 00:35 Clear 28 -2 17 -8.5 61 61 SSW 9 15 30.13 1020 10 16 0.00 0.00
12:55 am 00:55 Clear 28 -2.3 17 -8.5 62 62 S 7 11 30.13 1020 10 16 0.00 0.00
1:15 am 01:15 Clear 27 -2.8 17 -8.6 64 64 S 7 11 30.12 1020 10 16 0.00 0.00
1:35 am 01:35 Clear 27 -3 17 -8.5 66 66 S 6 9 30.12 1020 10 16 0.00 0.00
1:55 am 01:55 Clear 27 -2.9 18 -8 68 68 S 7 11 30.12 1020 10 16 0.00 0.00
2:15 am 02:15 Clear 27 -2.8 18 -7.7 69 69 S 6 9 30.11 1020 10 16 0.00 0.00
2:35 am 02:35 Clear 27 -2.8 19 -7.4 70 70 S 8 13 30.11 1020 10 16 0.00 0.00
2:55 am 02:55 Clear 27 -2.9 19 -7.5 70 70 S 7 11 30.11 1020 10 16 0.00 0.00
3:15 am 03:15 Clear 26 -3.5 17 -8.1 70 70 S 7 11 30.10 1019 10 16 0.00 0.00
3:35 am 03:35 Clear 25 -3.7 18 -7.9 73 73 S 6 9 30.10 1019 10 16 0.00 0.00
3:55 am 03:55 Clear 25 -3.8 18 -7.9 73 73 S 6 9 30.09 1019 10 16 0.00 0.00
4:15 am 04:15 Clear 25 -4.1 18 -7.7 76 76 S 6 9 30.09 1019 10 16 0.00 0.00
4:35 am 04:35 Clear 26 -3.6 19 -7.3 75 75 S 6 9 30.09 1019 10 16 0.00 0.00
4:55 am 04:55 Clear 26 -3.5 19 -7.5 74 74 S 6 9 30.09 1019 10 16 0.00 0.00
5:15 am 05:15 Clear 25 -3.8 19 -7.4 76 76 S 6 9 30.08 1019 10 16 0.00 0.00
5:35 am 05:35 Clear 25 -3.8 19 -7.3 77 77 S 7 11 30.08 1019 10 16 0.00 0.00
5:55 am 05:55 Clear 26 -3.6 20 -6.6 80 80 S 7 11 30.06 1018 10 16 0.00 0.00
6:15 am 06:15 Clear 26 -3.4 20 -6.5 79 79 S 8 13 30.05 1018 10 16 0.00 0.00
6:35 am 06:35 Clear 26 -3.1 20 -6.4 78 78 S 7 11 30.05 1018 10 16 0.00 0.00
6:55 am 06:55 Clear 25 -3.9 20 -6.5 82 82 S 8 13 30.05 1018 10 16 0.00 0.00
7:15 am 07:15 Clear 25 -3.8 20 -6.8 80 80 S 6 9 30.07 1018 10 16 0.00 0.00
7:35 am 07:35 Clear 24 -4.5 20 -6.6 85 85 SSE 5 7 30.07 1018 10 16 0.00 0.00
7:55 am 07:55 Sunny 24 -4.2 20 -6.5 84 84 SSE 6 9 30.06 1018 10 16 0.00 0.00
8:15 am 08:15 Sunny 25 -4.1 20 -6.5 83 83 SSE 6 9 30.06 1018 10 16 0.00 0.00
8:35 am 08:35 Sunny 26 -3.5 22 -5.7 85 85 S 5 7 30.05 1018 10 16 0.00 0.00
8:55 am 08:55 Sunny 28 -2.3 23 -5.1 81 81 S 6 9 30.05 1018 10 16 0.00 0.00
9:35 am 09:35 Mostly Cloudy 29 -1.4 24 -4.4 80 80 S 7 11 30.04 1017 10 16 0.00 0.00
9:55 am 09:55 Cloudy 31 -0.7 25 -3.9 79 79 S 6 9 30.05 1018 10 16 0.00 0.00
10:15 am 10:15 Cloudy 32 -0.2 25 -3.7 77 77 S 8 13 30.05 1018 10 16 0.00 0.00
10:35 am 10:35 Cloudy 32 0 26 -3.6 77 77 S 7 11 30.05 1018 10 16 0.00 0.00
10:55 am 10:55 Cloudy 33 0.6 26 -3.5 74 74 S 7 11 30.04 1017 10 16 0.00 0.00
11:15 am 11:15 Cloudy 35 1.4 26 -3.2 71 71 S 8 13 30.03 1017 10 16 0.00 0.00
11:35 am 11:35 Cloudy 35 1.6 26 -3.2 70 70 SSE 8 13 30.02 1017 10 16 0.00 0.00
11:55 am 11:55 Cloudy 36 2 26 -3.3 68 68 S 8 13 30.00 1016 10 16 0.00 0.00
12:15 pm 12:15 Cloudy 37 2.5 26 -3.6 64 64 S 7 11 30.00 1016 10 16 0.00 0.00
12:35 pm 12:35 Cloudy 37 3 26 -3.4 63 63 S 7 11 29.99 1015 10 16 0.00 0.00
12:55 pm 12:55 Cloudy 38 3.3 25 -3.7 60 60 S 7 11 29.98 1015 10 16 0.00 0.00
1:15 pm 13:15 Cloudy 39 3.7 24 -4.2 56 56 S 7 11 29.97 1015 10 16 0.00 0.00
1:35 pm 13:35 Cloudy 39 4.1 25 -4.1 55 55 S 9 15 29.96 1015 10 16 0.00 0.00
1:55 pm 13:55 Cloudy 40 4.5 26 -3.5 56 56 S 10 17 29.94 1014 10 16 0.00 0.00
2:15 pm 14:15 Cloudy 41 4.8 25 -3.7 54 54 S 10 17 29.94 1014 10 16 0.00 0.00
2:35 pm 14:35 Cloudy 42 5.6 26 -3.6 51 51 S 7 11 29.94 1014 10 16 0.00 0.00
2:55 pm 14:55 Cloudy 42 5.6 27 -3 54 54 S 7 11 29.93 1013 10 16 0.00 0.00
3:15 pm 15:15 Cloudy 43 6.1 26 -3.4 50 50 S 8 13 29.92 1013 10 16 0.00 0.00
3:35 pm 15:35 Cloudy 43 6.2 27 -3 52 52 SSE 7 11 29.92 1013 10 16 0.00 0.00
3:55 pm 15:55 Cloudy 43 6 26 -3.3 51 51 S 9 15 29.92 1013 10 16 0.00 0.00
4:15 pm 16:15 Cloudy 43 6 26 -3.5 50 50 SSE 9 15 29.94 1014 10 16 0.00 0.00
4:35 pm 16:35 Cloudy 42 5.5 28 -2.4 57 57 SSE 9 15 29.93 1013 10 16 0.00 0.00
4:55 pm 16:55 Cloudy 41 5.2 28 -2.4 58 58 SSE 7 11 29.93 1013 10 16 0.00 0.00
5:15 pm 17:15 Cloudy 41 5.2 28 -2.5 57 57 SE 8 13 29.92 1013 10 16 0.00 0.00
5:35 pm 17:35 Cloudy 41 5 28 -2.3 59 59 SE 8 13 29.92 1013 10 16 0.00 0.00
5:55 pm 17:55 Cloudy 41 4.9 28 -2.3 60 60 SE 6 9 29.92 1013 10 16 0.00 0.00
6:15 pm 18:15 Cloudy 41 4.8 28 -2.2 60 60 SE 7 11 29.92 1013 10 16 0.00 0.00
6:35 pm 18:35 Cloudy 40 4.7 28 -2 62 62 SE 8 13 29.92 1013 10 16 0.00 0.00
6:55 pm 18:55 Cloudy 41 5 29 -1.8 61 61 SSE 8 13 29.92 1013 10 16 0.00 0.00
7:15 pm 19:15 Cloudy 41 5 29 -1.4 63 63 SSE 8 13 29.93 1013 10 16 0.00 0.00
7:35 pm 19:35 Cloudy 41 5 30 -1.3 64 64 SSE 9 15 29.92 1013 10 16 0.00 0.00
7:55 pm 19:55 Cloudy 41 5 30 -1.1 65 65 SSE 7 11 29.92 1013 10 16 0.00 0.00
8:15 pm 20:15 Cloudy 41 5.1 31 -0.8 66 66 S 9 15 29.93 1013 10 16 0.00 0.00
8:35 pm 20:35 Cloudy 41 5.2 32 -0.1 69 69 S 8 13 29.94 1014 10 16 0.00 0.00
8:55 pm 20:55 Cloudy 41 5 32 -0.1 70 70 S 12 19 29.94 1014 10 16 0.00 0.00
9:15 pm 21:15 Cloudy 41 5 32 0 70 70 S 6 9 29.95 1014 10 16 0.00 0.00
9:35 pm 21:35 Cloudy 41 5 32 0.1 71 71 S 5 7 29.96 1014 10 16 0.00 0.00
9:55 pm 21:55 Cloudy 41 5 33 0.5 73 73 S 7 11 29.95 1014 10 16 0.00 0.00
10:15 pm 22:15 Cloudy 41 5 33 0.8 74 74 S 7 11 29.95 1014 10 16 0.00 0.00
10:35 pm 22:35 Cloudy 41 5 34 1 75 75 S 7 11 29.96 1014 10 16 0.00 0.00
10:55 pm 22:55 Cloudy 40 4.6 34 1.1 78 78 S 5 7 29.95 1014 10 16 0.00 0.00
11:15 pm 23:15 Cloudy 40 4.5 34 1.3 80 80 S 5 7 29.96 1015 10 16 0.00 0.00
11:35 pm 23:35 Cloudy 41 4.8 35 1.6 80 80 S 5 7 29.97 1015 10 16 0.00 0.00
11:55 pm 23:55 Cloudy 40 4.7 36 2 83 83 SSW 5 7 29.97 1015 10 16 0.00 0.00

Powered by AerisWeather